Lovelock, NV

3:32 AM PDT on September 26, 2017 (GMT -0700)
Derby

Weather History for KLOL - February, 2013

Change the Weather History Date:

Monday, February 25, 2013

  Actual Average Record
Temperature  
Mean Temperature 29 °F -  
Max Temperature 51 °F 52 °F 71 °F (1950)
Min Temperature 7 °F 24 °F 7 °F (2013)
Degree Days  
Heating Degree Days 36    
Moisture  
Dew Point 7 °F    
Average Humidity 42    
Maximum Humidity 73    
Minimum Humidity 19    
Precipitation  
Precipitation 0.00 in - - ()
Sea Level Pressure  
Sea Level Pressure 30.24 in    
Wind  
Wind Speed 6 mph (North)    
Max Wind Speed 31 mph    
Max Gust Speed 40 mph    
Visibility 10 miles    
Events      
Averages and records for this station are not official NWS values.
T = Trace of Precipitation, MM = Missing Value Source: NWS Daily Summary

Daily Weather History Graph

Daily Weather History Graph

Search for Another Location

Airport or City:

Trip Planner

Search our weather history database for the weather conditions in past years. The results will help you decide how hot, cold, wet, or windy it might be!

Date:

Astronomy

Feb. 25, 2013 Rise Set
Actual Time 6:33 AM PST 5:42 PM PST
Civil Twilight 6:05 AM PST 6:09 PM PST
Nautical Twilight 5:34 AM PST 6:40 PM PST
Astronomical Twilight 5:02 AM PST 7:12 PM PST
Moon 6:00 PM PST (2/25) 6:05 AM PST (2/25)
Length of Visible Light 12h 03m
Length of Day
11h 08m
Full, 100% of the Moon is Illuminated
Feb 25
Full
Feb 25
Full
Mar 4
Last Quarter
Mar 11
New
Mar 19
First Quarter

Hourly Weather History & Observations

Time (PST) Temp. Windchill Dew Point Humidity Pressure Visibility Wind Dir Wind Speed Gust Speed Precip Events Conditions
12:53 AM 10.9 °F 2.9 °F -0.0 °F 61% 30.34 in 10.0 mi ESE 4.6 mph - N/A   Clear
1:53 AM 9.0 °F - -0.9 °F 64% 30.32 in 10.0 mi Calm Calm - N/A   Clear
2:53 AM 7.0 °F -1.7 °F -2.0 °F 67% 30.31 in 10.0 mi SE 4.6 mph - N/A   Clear
3:53 AM 8.1 °F - -0.0 °F 70% 30.30 in 10.0 mi Calm Calm - N/A   Clear
4:53 AM 10.9 °F - 3.9 °F 73% 30.29 in 10.0 mi Calm Calm - N/A   Clear
5:53 AM 12.0 °F - 1.9 °F 64% 30.28 in 10.0 mi Calm Calm - N/A   Clear
6:53 AM 12.9 °F - 3.0 °F 65% 30.28 in 10.0 mi Calm Calm - N/A   Clear
7:53 AM 15.1 °F 9.4 °F 5.0 °F 64% 30.30 in 10.0 mi ESE 3.5 mph - N/A   Clear
8:53 AM 28.9 °F 25.2 °F 10.9 °F 47% 30.27 in 10.0 mi Variable 3.5 mph - N/A   Clear
9:53 AM 37.0 °F - 12.9 °F 37% 30.24 in 10.0 mi Calm Calm - N/A   Clear
10:53 AM 42.1 °F 40.2 °F 12.0 °F 29% 30.19 in 10.0 mi Variable 3.5 mph - N/A   Clear
11:53 AM 48.0 °F - 14.0 °F 26% 30.17 in 10.0 mi North 5.8 mph - N/A   Clear
12:53 PM 51.1 °F - 14.0 °F 23% 30.15 in 10.0 mi NW 31.1 mph 40.3 mph N/A   Overcast
1:53 PM 51.1 °F - 18.0 °F 27% 30.18 in 10.0 mi NNW 24.2 mph 33.4 mph N/A   Scattered Clouds
2:06 PM 48.9 °F - 23.0 °F 36% 30.11 in 10.0 mi North 19.6 mph 28.8 mph N/A   Partly Cloudy
2:53 PM 48.9 °F - 17.1 °F 28% 30.20 in 10.0 mi NW 20.7 mph 29.9 mph N/A   Clear
3:53 PM 48.0 °F - 10.0 °F 22% 30.20 in 10.0 mi NW 18.4 mph 32.2 mph N/A   Clear
4:53 PM 45.0 °F 37.6 °F 5.0 °F 19% 30.18 in 10.0 mi NW 17.3 mph - N/A   Clear
5:53 PM 41.0 °F 33.5 °F 6.1 °F 24% 30.20 in 10.0 mi NNW 13.8 mph - N/A   Clear
6:53 PM 30.9 °F 25.2 °F 1.9 °F 29% 30.24 in 10.0 mi SE 5.8 mph - N/A   Clear
7:53 PM 35.1 °F 31.0 °F 3.0 °F 26% 30.23 in 10.0 mi North 4.6 mph - N/A   Clear
8:53 PM 34.0 °F 26.0 °F 3.9 °F 28% 30.20 in 10.0 mi North 10.4 mph - N/A   Clear
9:53 PM 25.0 °F 18.1 °F 1.9 °F 37% 30.23 in 10.0 mi East 5.8 mph - N/A   Clear
10:53 PM 24.1 °F 18.2 °F 5.0 °F 44% 30.25 in 10.0 mi NNW 4.6 mph - N/A   Clear
11:53 PM 28.9 °F 21.9 °F 8.1 °F 41% 30.22 in 10.0 mi North 6.9 mph - N/A   Clear